Regional Weather Roundup
Issued by NWS

Home | Current Version | Previous Version | Text Only | Print | Product List | Glossary Off
Versions: 1 2 3 4 5 6 7 8 9 10 11 12 13 14 15 16 17 18 19 20 21 22 23 24 25 26 27 28 29 30 31 32 33 34 35 36 37 38 39 40 41 42 43 44 45 46 47 48 49 50

000
ASUS45 KBOU 281007
RWRCO

WEATHER ROUNDUP FOR COLORADO
NATIONAL WEATHER SERVICE DENVER/BOULDER CO
300 AM MST FRI NOV 28 2014

NOTE: "FAIR" INDICATES FEW OR NO CLOUDS BELOW 12000 FEET WITH NO
SIGNIFICANT WEATHER AND/OR OBSTRUCTIONS TO VISIBILITY.

COZ001>005-013-030-031-281100-
...NORTHWEST COLORADO...

CITY           SKY/WX    TMP DP  RH WIND       PRES   REMARKS
CRAIG          PTCLDY    24  20  84 CALM      30.20S
HAYDEN         PTCLDY    27  19  74 SE13      30.20S WCI  16
MEEKER         PTCLDY    30  22  72 CALM      30.21S
MOUNT WERNER   NOT AVBL
STEAMBOAT SPGS   N/A     23  22  98 CALM      30.21F VSB 3/4
WALDEN         CLEAR     30  18  59 SE12      30.20S WCI  21
$$

COZ006>008-011-281100-
...WEST CENTRAL VALLEYS...

CITY           SKY/WX    TMP DP  RH WIND       PRES   REMARKS
GRAND JUNCTION MOCLDY    27  22  81 NE6       30.25F WCI  20
MONTROSE       MOCLDY    30  21  69 S7        30.27F WCI  23
EAGLE          PTCLDY    27  25  93 E3        30.28F
RIFLE          PTCLDY    30  26  85 CALM      30.27F
DELTA          MOCLDY    29  23  77 CALM      30.26F
NUCLA          MOCLDY    32  21  64 E6        30.32S WCI  26
$$

COZ017>023-064>068-281100-
...SOUTHWEST COLORADO...

CITY           SKY/WX    TMP DP  RH WIND       PRES   REMARKS
DURANGO        PTCLDY    22  17  81 NE3       30.32F
CORTEZ         CLEAR     23  18  81 E7        30.31S WCI  15
PAGOSA SPRINGS PTCLDY    25  18  76 CALM      30.35F
TELLURIDE      MOCLDY    33  14  45 E7        30.39F WCI  27
WOLF CREEK PAS CLEAR     28   5  37 MISG      30.43F
$$

COZ009-010-012-014-032>034-037-058>063-281100-
...CENTRAL COLORADO...

CITY           SKY/WX    TMP DP  RH WIND       PRES   REMARKS
ASPEN          PTCLDY    30  19  63 SW7       30.26F WCI  23
BUENA VISTA    CLEAR     44   7  22 N12G20    30.21F
COPPER MTN     PTCLDY    34   3  27 W31G43    30.35F HAZE    WCI  20
BERTHOUD PASS  NOT AVBL
COTTONWOOD PAS CLEAR     45  -4  13 W40G55    30.24F
GUNNISON       PTCLDY    12   7  79 CALM      30.39F
KREMMLING      PTCLDY    23  21  93 CALM      30.26F
LEADVILLE      PTCLDY    31   8  38 NE8       30.29F WCI  23
MONARCH PASS   PTCLDY    28   9  43 W39G47    30.46F WCI  11
SALIDA         CLEAR     47   9  21 SW14G22   30.26F
SUNLIGHT       MOCLDY    32  21  64 CALM      30.36F
WILKERSON PASS PTCLDY    34   1  25 W18G30    30.28S WCI  23
$$

COZ069>075-281100-
...SAN LUIS VALLEY/SANGRE DE CRISTO MOUNTAINS...

CITY           SKY/WX    TMP DP  RH WIND       PRES   REMARKS
ALAMOSA        MOCLDY    12   7  80 CALM      30.29F
LA VETA PASS   PTCLDY    32  12  43 S15G24    30.30F WCI  22
SAGUACHE       PTCLDY    23  18  80 N8        30.31S WCI  14
$$

COZ035-036-038>040-281100-
...NORTHERN COLORADO FRONT RANGE...

CITY           SKY/WX    TMP DP  RH WIND       PRES   REMARKS
DENVER INTL AP MOCLDY    49  15  25 SW7       30.01F
DMNS CITY PARK   N/A     42  17  36 S6        30.01S
AURORA         PTCLDY    48  14  25 S9        30.03F
FRONT RANGE AP MOCLDY    54  14  20 SW12G21   30.02F
ERIE MUNI ARPT CLOUDY    35  22  59 E3        29.98F
BOULDER MUN AP CLOUDY    52  16  24 NE6       29.98F
CENTENNIAL     MOCLDY    43  15  32 S13       30.04F
BROOMFIELD     CLOUDY    52  14  22 S5        30.03F
FORT COLLINS   PTCLDY    37  19  48 NW3       29.99F
LONGMONT       PTCLDY    52  17  24 S7        30.00S
$$

COZ041-046-047-076>085-087-088-281100-
...PIKES PEAK/PALMER DIVIDE AND SOUTHERN FOOTHILLS...

CITY           SKY/WX    TMP DP  RH WIND       PRES   REMARKS
COLO. SPRINGS  MOCLDY    47  13  25 E6        30.11F
A. F. ACADEMY  MOCLDY    42  13  30 SW5       30.11F
ELLICOTT       NOT AVBL
FALCON         NOT AVBL
FORT CARSON    PTCLDY    42  15  33 N5        30.08F
LIMON          PTCLDY    27  18  69 N10       30.05F WCI  17
MONUMENT HILL  PTCLDY    36  14  41 S9        30.10F
TRINIDAD       PTCLDY    41  21  44 SW18      30.14F
$$

COZ042>045-048>051-090-091-281100-
...NORTHEAST COLORADO...

CITY           SKY/WX    TMP DP  RH WIND       PRES   REMARKS
GREELEY ARPT   MOCLDY    25  16  68 SE3       30.00F
AKRON          MOCLDY    47  22  37 SW13      29.98F
BURLINGTON     PTCLDY    34  20  56 SW9       30.00F WCI  27
WRAY           CLEAR     33  26  75 W7        29.96F WCI  27
STERLING       MOCLDY    32  28  86 S9        29.96F WCI  24
HOLYOKE        CLEAR     34  28  80 W8        29.95F WCI  27
FORT MORGAN    MOCLDY    37  24  59 W12       30.00S
$$

COZ086-089-092>099-281100-
...SOUTHEAST COLORADO...

CITY           SKY/WX    TMP DP  RH WIND       PRES   REMARKS
PUEBLO         PTCLDY    32  21  64 SW7       30.08F WCI  26
LA JUNTA       PTCLDY    40  22  48 SW3       30.05F
LAMAR          PTCLDY    27  20  75 W5        30.02F WCI  22
SPRINGFIELD      N/A     42  18  37 W13       30.05S
$$



USA.gov is the U.S. government's official web portal to all federal, state and local government web resources and services.